DateTime,F1_A11,F1_S11,BsB_S11,BsG_S11,BsR_S11,BbsB_S11,BbsG_S11,BbsR_S11,BaB_A11,BaG_A11,BaR_A11,T_S11,U_S11,P_S11,T1_A11
2016-04-18T00:00:00Z,0000380,21000600,,,,,,,,,,26.5,00.0,0653.8,34.7
2016-04-18T00:01:00Z,0000380,21000600,,,,,,,,,,26.5,00.0,0653.8,34.7
2016-04-18T00:02:00Z,0000380,21000600,,,,,,,,,,26.5,00.0,0653.8,34.7
2016-04-18T00:03:00Z,0000380,61000600,,,,,,,,,,26.5,00.0,0653.8,34.7
2016-04-18T00:04:00Z,0000380,41000600,0002.61,0001.69,0000.56,0001.32,0000.47,0000.02,0000.08,-000.00,0000.12,26.5,00.0,0654.5,34.7
2016-04-18T00:05:00Z,0000380,01000600,0003.02,0001.51,0000.93,0000.53,0000.21,0000.39,0000.17,0000.20,0000.10,26.5,00.0,0654.6,34.7
2016-04-18T00:06:00Z,0000380,01000600,0002.41,0001.59,0000.82,-000.03,0000.31,0000.13,0000.20,0000.18,-000.11,26.5,00.0,0654.6,34.7
2016-04-18T00:07:00Z,0000380,01000600,0001.40,0000.61,0001.34,0001.03,0000.61,0000.27,0000.11,0000.23,0000.23,26.5,00.0,0654.6,34.7
2016-04-18T00:08:00Z,0000380,01000600,0002.90,0002.27,0000.97,0000.10,0000.19,0000.23,0000.29,0000.16,0000.03,26.5,00.0,0654.6,34.7
2016-04-18T00:09:00Z,0000380,01000600,0002.49,0002.11,0001.41,0000.74,0000.06,0000.02,0000.15,-000.07,0000.06,26.5,00.0,0654.6,34.7
2016-04-18T00:10:00Z,0000380,01000600,0002.23,0000.58,0000.76,0001.16,-000.06,0000.06,0000.16,0000.19,0000.17,26.5,00.0,0654.6,34.7
2016-04-18T00:11:00Z,0000380,01000600,0001.91,0000.73,0001.19,0000.97,0000.63,0000.06,0000.00,0000.11,0000.37,26.5,00.0,0654.6,34.7
2016-04-18T00:12:00Z,0000380,01000600,0002.48,0001.64,0001.09,0000.79,-000.31,0000.84,0000.27,0000.31,0000.14,26.5,00.0,0654.6,34.7
2016-04-18T00:13:00Z,0000380,01000600,0002.81,0001.60,0001.31,0000.18,0000.27,0000.55,0000.12,-000.08,0000.14,26.5,00.0,0654.6,34.7
2016-04-18T00:14:00Z,0000380,01000600,0002.50,0002.18,0001.43,0000.16,0000.39,0000.18,0000.26,0000.41,-000.08,26.5,00.0,0654.6,34.7
2016-04-18T00:15:00Z,0000380,01000600,0001.97,0000.69,0000.68,0001.28,0000.21,-000.27,0000.24,0000.22,0000.15,26.5,00.0,0654.6,34.7
2016-04-18T00:16:00Z,0000380,01000600,0002.48,0001.30,0001.34,0000.34,0000.53,0000.23,0000.11,0000.16,0000.40,26.5,00.0,0654.6,34.7
2016-04-18T00:17:00Z,0000380,01000600,0002.60,0001.49,0000.98,0000.18,0000.45,-000.03,0000.13,0000.03,0000.16,26.5,00.0,0654.6,34.7
2016-04-18T00:18:00Z,0000380,01000600,0002.40,0001.56,0001.00,0001.32,0000.51,-000.10,0000.28,0000.19,-000.49,26.5,00.0,0654.6,34.7
2016-04-18T00:19:00Z,0000380,01000600,0002.38,0001.57,0000.59,0000.29,0000.37,-000.08,0000.21,0000.29,0000.68,26.5,00.0,0654.6,34.7
2016-04-18T00:20:00Z,0000380,01000600,0002.88,0001.54,0000.45,0001.08,0000.39,0000.03,0000.12,-000.07,-000.21,26.5,00.0,0654.6,34.7
2016-04-18T00:21:00Z,0000380,01000600,0001.79,0001.11,0001.22,0000.92,0000.47,-000.18,-000.05,0000.17,0000.32,26.5,00.0,0654.6,34.7
2016-04-18T00:22:00Z,0000380,01000600,0002.38,0001.35,0000.97,0000.73,0000.32,0000.24,0000.19,0000.05,0000.10,26.5,00.0,0654.6,34.7
2016-04-18T00:23:00Z,0000380,01000600,0002.13,0001.59,0000.95,0000.32,0000.42,0000.23,0000.26,0000.15,-000.23,26.5,00.0,0654.6,34.7
2016-04-18T00:24:00Z,0000380,01000600,0001.48,0001.14,0002.01,0000.36,0000.26,0000.37,0000.01,0000.20,0000.21,26.5,00.0,0654.5,34.7
2016-04-18T00:25:00Z,0000380,01000600,0003.48,0001.86,0001.53,0000.86,0000.13,-000.18,0000.15,0000.17,0000.07,26.5,00.0,0654.5,34.7
2016-04-18T00:26:00Z,0000380,01000600,0002.76,0001.77,0000.92,0000.55,0000.58,-000.06,0000.20,0000.14,0000.36,26.5,00.0,0654.5,34.7
2016-04-18T00:27:00Z,0000380,01000600,0001.07,0001.10,0001.26,0000.78,0000.02,0000.40,0000.15,-000.02,-000.15,26.5,00.0,0654.5,34.7
2016-04-18T00:28:00Z,0000380,01000600,0002.23,0001.88,0001.01,0000.37,0000.47,-000.19,0000.22,0000.22,0000.23,26.5,00.0,0654.5,34.7
2016-04-18T00:29:00Z,0000380,01000600,0002.38,0000.71,0001.57,0000.08,0000.66,0000.31,0000.17,0000.14,0000.05,26.5,00.0,0654.5,34.7
2016-04-18T00:30:00Z,0000380,01000600,0001.30,0001.59,0000.99,0000.02,0000.50,0000.34,0000.06,0000.24,0000.05,26.5,00.0,0654.5,34.7
2016-04-18T00:31:00Z,0000380,01000600,0001.67,0001.87,0001.06,0001.23,0000.16,0000.26,0000.19,0000.11,0000.36,26.5,00.0,0654.4,34.7
2016-04-18T00:32:00Z,0000380,01000600,0001.46,0001.93,0000.94,0000.13,0000.80,0000.10,0000.18,0000.26,0000.06,26.5,00.0,0654.4,34.7
2016-04-18T00:33:00Z,0000380,01000600,0001.26,0002.25,0001.26,0000.00,0000.48,0000.13,0000.10,0000.14,0000.41,26.5,00.0,0654.5,34.7
2016-04-18T00:34:00Z,0000380,01000600,0003.50,0001.16,0001.47,0000.74,0000.02,-000.37,0000.22,0000.02,-000.20,26.5,00.0,0654.4,34.7
2016-04-18T00:35:00Z,0000380,01000600,0003.49,0001.30,0000.64,0000.03,0000.24,-000.29,0000.06,0000.28,0000.41,26.5,00.0,0654.4,34.7
2016-04-18T00:36:00Z,0000380,01000600,0004.04,0001.18,0000.72,0000.78,0000.06,0000.06,0000.07,0000.13,-000.05,26.5,00.0,0654.4,34.7
2016-04-18T00:37:00Z,0000380,01000600,0003.23,0001.84,0000.33,0001.20,0000.64,0000.16,0000.38,0000.29,0000.19,26.5,00.0,0654.4,34.7
2016-04-18T00:38:00Z,0000380,01000600,0002.77,0001.56,0001.30,0001.15,-000.16,0000.00,-000.02,0000.05,0000.17,26.5,00.0,0654.4,34.7
2016-04-18T00:39:00Z,0000380,01000600,0002.32,0001.21,0000.76,0000.68,0000.48,-000.23,0000.24,0000.08,-000.14,26.5,00.0,0654.4,34.7
2016-04-18T00:40:00Z,0000380,01000600,0003.31,0002.19,0000.87,0000.55,-000.19,0000.36,0000.05,0000.16,0000.22,26.5,00.0,0654.4,34.7
2016-04-18T00:41:00Z,0000380,01000600,0001.21,0002.20,0001.19,0001.08,0000.40,0000.49,0000.41,0000.20,-000.09,26.5,00.0,0654.4,34.7
2016-04-18T00:42:00Z,0000380,01000600,0003.22,0002.30,0001.19,0001.15,0000.32,0000.18,0000.28,0000.09,0000.18,26.5,00.0,0654.4,34.7
2016-04-18T00:43:00Z,0000380,01000600,0001.42,0000.44,0000.86,0000.06,0000.60,0000.21,0000.08,0000.22,0000.38,26.5,00.0,0654.4,34.7
2016-04-18T00:44:00Z,0000380,01000600,0003.00,0002.23,0000.95,0000.18,0000.40,-000.15,0000.06,0000.04,-000.01,26.5,00.0,0654.4,34.7
2016-04-18T00:45:00Z,0000380,01000600,0002.73,0002.13,0001.07,0000.89,0000.37,0000.06,0000.11,0000.14,-000.03,26.5,00.0,0654.4,34.7
2016-04-18T00:46:00Z,0000380,01000600,0003.21,0002.29,0001.28,0000.21,0000.34,0000.32,0000.33,0000.29,0000.33,26.5,00.0,0654.4,34.7
2016-04-18T00:47:00Z,0000380,01000600,0002.01,0001.74,0000.50,0000.95,0000.32,0000.02,0000.10,0000.01,-000.10,26.5,00.0,0654.4,34.7
2016-04-18T00:48:00Z,0000380,01000600,0003.04,0002.11,0001.24,0000.76,0000.60,0000.31,0000.22,0000.30,0000.32,26.4,00.0,0654.3,34.7
2016-04-18T00:49:00Z,0000380,01000600,0002.99,0001.76,0001.03,0000.29,0000.56,-000.02,0000.13,0000.06,-000.25,26.4,00.0,0654.3,34.7
2016-04-18T00:50:00Z,0000380,01000600,0003.07,0001.53,0001.17,0000.53,0000.02,0000.21,0000.07,0000.01,0000.30,26.4,00.0,0654.3,34.7
2016-04-18T00:51:00Z,0000380,01000600,0002.05,0002.27,0001.15,0000.66,-000.05,0000.27,0000.28,0000.33,0000.20,26.4,00.0,0654.3,34.7
2016-04-18T00:52:00Z,0000380,01000600,0003.28,0001.99,0001.56,0001.42,0000.71,0000.29,0000.30,-000.16,-000.01,26.4,00.0,0654.3,34.7
2016-04-18T00:53:00Z,0000380,01000600,0001.81,0002.29,0001.08,0000.13,0000.60,-000.10,0000.25,0000.16,0000.45,26.4,00.0,0654.3,34.7
2016-04-18T00:54:00Z,0000380,01000600,0003.54,0001.51,0000.29,0000.81,0000.45,-000.18,0000.08,0000.24,-000.03,26.4,00.0,0654.4,34.7
2016-04-18T00:55:00Z,0000380,01000600,0003.47,0001.50,0001.00,0000.23,0000.35,0000.27,0000.29,0000.24,0000.08,26.4,00.0,0654.3,34.7
2016-04-18T00:56:00Z,0000380,01000600,0003.01,0001.81,0001.59,0000.95,0000.51,0000.34,-000.16,0000.11,-000.03,26.4,00.0,0654.3,34.7
2016-04-18T00:57:00Z,0000380,41000600,,,,,,,,,,,,0654.5,34.7
2016-04-18T00:58:00Z,0000380,61000600,,,,,,,,,,26.3,00.0,0653.5,34.7
2016-04-18T00:59:00Z,0000380,21000600,,,,,,,,,,26.3,00.0,0653.5,34.7
2016-04-18T01:00:00Z,0000380,21000600,,,,,,,,,,26.3,00.0,0653.5,34.7
2016-04-18T01:01:00Z,0000380,21000600,,,,,,,,,,26.3,00.0,0653.5,34.7
2016-04-18T01:02:00Z,0000380,21000600,,,,,,,,,,26.3,00.0,0653.5,34.7
2016-04-18T01:03:00Z,0000380,61000600,,,,,,,,,,26.3,00.0,0653.5,34.7
2016-04-18T01:04:00Z,0000380,41000600,0002.14,0001.23,0000.95,-000.02,0000.06,0000.44,0000.00,0000.21,0000.25,26.5,00.0,0654.2,34.7
2016-04-18T01:05:00Z,0000380,01000600,0002.68,0001.29,0001.36,0000.36,0000.06,0000.21,0000.24,0000.16,0000.33,26.5,00.0,0654.3,34.7
2016-04-18T01:06:00Z,0000380,01000600,0002.48,0001.59,0001.34,0000.66,0000.53,0000.19,0000.09,0000.15,0000.13,26.5,00.0,0654.3,34.7
2016-04-18T01:07:00Z,0000380,01000600,0001.48,0001.75,0001.62,0000.06,0000.19,0000.10,0000.24,0000.20,0000.18,26.5,00.0,0654.3,34.7
2016-04-18T01:08:00Z,0000380,01000600,0002.42,0001.74,0001.16,-000.26,0000.34,-000.03,0000.08,0000.16,0000.09,26.5,00.0,0654.3,34.7
2016-04-18T01:09:00Z,0000380,01000600,0002.14,0001.07,0000.89,0000.16,0000.39,-000.08,0000.33,0000.14,-000.08,26.5,00.0,0654.3,34.7
2016-04-18T01:10:00Z,0000380,01000600,0001.72,0001.70,0001.08,-000.03,0000.84,0000.23,0000.25,0000.14,0000.13,26.5,00.0,0654.3,34.7
2016-04-18T01:11:00Z,0000380,01000600,0002.82,0001.81,0001.47,0000.31,-000.42,-000.39,0000.27,0000.31,0000.37,26.5,00.0,0654.3,34.7
2016-04-18T01:12:00Z,0000380,01000600,0002.89,0002.28,0001.61,0000.36,0000.23,0000.23,0000.01,-000.08,-000.25,26.5,00.0,0654.4,34.7
2016-04-18T01:13:00Z,0000380,01000600,0002.90,0002.58,0001.58,0000.78,0000.56,0000.40,0000.24,0000.36,0000.31,26.5,00.0,0654.4,34.7
2016-04-18T01:14:00Z,0000380,01000600,0002.30,0001.81,0001.12,0000.42,0000.27,-000.16,0000.12,0000.13,0000.20,26.5,00.0,0654.4,34.7
2016-04-18T01:15:00Z,0000380,01000600,0002.70,0001.11,0001.27,0000.66,0000.58,0000.10,0000.29,0000.16,0000.01,26.5,00.0,0654.4,34.7
2016-04-18T01:16:00Z,0000380,01000600,0002.08,0001.99,0001.41,0000.50,0000.50,0000.42,0000.21,0000.23,0000.13,26.5,00.0,0654.4,34.7
2016-04-18T01:17:00Z,0000380,01000600,0002.91,0002.38,0001.21,0000.21,-000.18,-000.05,0000.09,0000.09,0000.19,26.5,00.0,0654.3,34.7
2016-04-18T01:18:00Z,0000380,01000600,0002.30,0001.46,0002.01,0000.26,-000.08,0000.70,0000.10,0000.11,0000.06,26.5,00.0,0654.3,34.7
2016-04-18T01:19:00Z,0000380,01000600,0002.43,0002.16,0001.59,-000.08,0000.31,0000.60,0000.26,0000.17,0000.48,26.5,00.0,0654.3,34.7
2016-04-18T01:20:00Z,0000380,01000600,0002.10,0001.51,0001.01,0000.65,0000.87,0000.15,0000.19,0000.23,-000.21,26.5,00.0,0654.3,34.7
2016-04-18T01:21:00Z,0000380,01000600,0003.23,0002.11,0000.61,0000.61,-000.11,0000.34,0000.24,0000.07,0000.03,26.5,00.0,0654.3,34.7
2016-04-18T01:22:00Z,0000380,01000600,0002.80,0002.02,0001.07,-000.36,0000.35,-000.16,0000.22,0000.26,0000.26,26.5,00.0,0654.3,34.7
2016-04-18T01:23:00Z,0000380,01000600,0002.75,0002.37,0001.33,-000.39,0000.08,-000.37,0000.10,0000.12,0000.08,26.5,00.0,0654.3,34.7
2016-04-18T01:24:00Z,0000380,01000600,0002.98,0002.38,0000.82,-000.26,-000.05,0000.23,0000.22,0000.05,0000.31,26.5,00.0,0654.4,34.7
2016-04-18T01:25:00Z,0000380,01000600,0003.56,0002.59,0001.82,0000.50,-000.10,0000.50,0000.05,0000.31,0000.06,26.5,00.0,0654.4,34.7
2016-04-18T01:26:00Z,0000380,01000600,0001.69,0000.94,0001.48,-000.08,0000.18,0000.18,0000.12,-000.05,-000.05,26.5,00.0,0654.4,34.7
2016-04-18T01:27:00Z,0000380,01000600,0002.50,0001.70,0000.81,-000.06,0000.37,0000.18,0000.32,0000.12,0000.25,26.5,00.0,0654.4,34.7
2016-04-18T01:28:00Z,0000380,01000600,0002.92,0001.68,0001.19,0000.74,0000.03,0000.08,0000.32,0000.36,0000.24,26.5,00.0,0654.3,34.7
2016-04-18T01:29:00Z,0000380,01000600,0003.34,0002.19,0001.01,0000.89,0000.14,0000.03,0000.25,0000.16,0000.13,26.5,00.0,0654.3,34.7
2016-04-18T01:30:00Z,0000380,01000600,0003.43,0002.24,0001.11,-000.10,0000.60,0000.13,-000.00,0000.03,0000.13,26.5,00.0,0654.3,34.7
2016-04-18T01:31:00Z,0000380,01000600,0002.95,0001.72,0000.95,0000.08,0000.23,-000.29,0000.18,0000.13,0000.02,26.5,00.0,0654.4,34.7
2016-04-18T01:32:00Z,0000380,01000600,0003.37,0002.35,0001.36,0000.13,0000.35,0000.00,0000.18,0000.24,0000.34,26.5,00.0,0654.4,34.7
2016-04-18T01:33:00Z,0000380,01000600,0003.12,0001.91,0001.43,0000.08,0001.01,0000.45,0000.21,0000.11,-000.39,26.5,00.0,0654.3,34.7
2016-04-18T01:34:00Z,0000380,01000600,0004.33,0001.73,0000.87,-000.16,0000.56,-000.19,0000.16,0000.23,0000.04,26.5,00.0,0654.3,34.7
2016-04-18T01:35:00Z,0000380,01000600,0002.11,0001.67,0000.43,0000.36,0000.00,-000.13,0000.04,0000.17,0000.47,26.5,00.0,0654.3,34.7
2016-04-18T01:36:00Z,0000380,01000600,0003.01,0002.87,0001.93,0000.52,-000.05,0000.45,0000.19,0000.24,0000.08,26.5,00.0,0654.3,34.7
2016-04-18T01:37:00Z,0000380,01000600,0002.27,0001.67,0001.05,0000.84,0000.13,0000.49,0000.38,0000.18,0000.26,26.5,00.0,0654.4,34.7
2016-04-18T01:38:00Z,0000380,01000600,0003.84,0001.06,0001.50,0000.37,0000.53,0000.39,0000.18,0000.02,0000.03,26.5,00.0,0654.3,34.7
2016-04-18T01:39:00Z,0000380,01000600,0002.56,0002.27,0001.26,0000.90,0000.14,0000.16,0000.14,0000.18,0000.04,26.5,00.0,0654.3,34.7
2016-04-18T01:40:00Z,0000380,01000600,0003.76,0002.07,0001.31,0000.79,0000.00,0000.08,0000.12,0000.11,0000.14,26.5,00.0,0654.3,34.7
2016-04-18T01:41:00Z,0000380,01000600,0002.31,0001.76,0001.74,0001.13,0000.23,0000.00,0000.41,0000.12,0000.09,26.5,00.0,0654.3,34.7
2016-04-18T01:42:00Z,0000380,01000600,0003.50,0001.61,0000.52,0000.68,0000.18,0000.34,0000.12,0000.23,-000.12,26.5,00.0,0654.3,34.7
2016-04-18T01:43:00Z,0000380,01000600,0001.96,0002.46,0001.21,-000.18,0000.43,0000.39,0000.06,0000.37,0000.47,26.5,00.0,0654.3,34.7
2016-04-18T01:44:00Z,0000380,01000600,0002.23,0001.00,0001.29,0001.13,0000.39,0000.36,0000.19,0000.14,0000.29,26.5,00.0,0654.3,34.7
2016-04-18T01:45:00Z,0000380,01000600,0003.25,0002.16,0001.13,-000.11,0000.14,0000.24,0000.14,0000.01,-000.18,26.5,00.0,0654.3,34.7
2016-04-18T01:46:00Z,0000380,01000600,0002.84,0001.90,0000.63,0000.03,-000.26,-000.10,0000.24,0000.19,0000.39,26.5,00.0,0654.3,34.7
2016-04-18T01:47:00Z,0000380,01000600,0003.31,0002.15,0000.90,0000.19,0000.14,0000.27,0000.05,0000.26,0000.06,26.4,00.0,0654.3,34.7
2016-04-18T01:48:00Z,0000380,01000600,0003.43,0001.46,0001.19,0000.61,0000.29,0000.58,0000.41,0000.11,0000.13,26.4,00.0,0654.3,34.7
2016-04-18T01:49:00Z,0000380,01000600,0002.65,0002.25,0001.38,0000.58,-000.02,0000.29,0000.06,0000.14,-000.09,26.4,00.0,0654.3,34.7
2016-04-18T01:50:00Z,0000380,01000600,0002.35,0002.47,0001.57,0001.13,0000.43,0000.66,0000.12,0000.17,0000.51,26.4,00.0,0654.3,34.7
2016-04-18T01:51:00Z,0000380,01000600,0003.23,0001.96,0001.05,-000.66,-000.18,0000.23,0000.26,0000.19,-000.05,26.4,00.0,0654.3,34.7
2016-04-18T01:52:00Z,0000380,01000600,0002.68,0001.49,0000.78,0000.34,0000.02,0000.05,0000.22,0000.15,-000.09,26.3,00.0,0654.3,34.7
2016-04-18T01:53:00Z,0000380,01000600,0002.81,0002.06,0000.86,0000.94,0000.53,0000.31,0000.23,0000.19,0000.26,26.3,00.0,0654.3,34.7
2016-04-18T01:54:00Z,0000380,01000600,0002.51,0001.86,0001.20,0000.87,-000.02,-000.06,0000.10,0000.12,0000.09,26.3,00.0,0654.3,34.7
2016-04-18T01:55:00Z,0000380,01000600,0002.47,0002.22,0001.05,0000.60,-000.14,0000.15,0000.24,0000.07,0000.44,26.3,00.0,0654.4,34.7
2016-04-18T01:56:00Z,0000380,01000600,0002.39,0002.74,0001.68,0000.61,-000.16,-000.16,0000.07,0000.22,-000.17,26.3,00.0,0654.4,34.7
2016-04-18T01:57:00Z,0000380,41000600,,,,,,,,,,,,0654.2,34.7
2016-04-18T01:58:00Z,0000380,61000600,,,,,,,,,,26.2,00.0,0653.6,34.7
2016-04-18T01:59:00Z,0000380,21000600,,,,,,,,,,26.2,00.0,0653.6,34.7
2016-04-18T02:00:00Z,0000380,21000600,,,,,,,,,,26.2,00.0,0653.6,34.7
2016-04-18T02:01:00Z,0000380,21000600,,,,,,,,,,26.2,00.0,0653.6,34.7
2016-04-18T02:02:00Z,0000380,21000600,,,,,,,,,,26.2,00.0,0653.6,34.7
2016-04-18T02:03:00Z,0000380,61000600,,,,,,,,,,26.2,00.0,0653.6,34.7
2016-04-18T02:04:00Z,0000380,41000600,0002.23,0002.19,0001.24,-000.08,0000.90,0000.15,0000.17,0000.12,0000.37,26.3,00.0,0654.3,34.7
2016-04-18T02:05:00Z,0000380,01000600,0002.83,0001.99,0001.25,0001.16,0000.64,0000.23,0000.39,0000.18,0000.04,26.3,00.0,0654.4,34.7
2016-04-18T02:06:00Z,0000380,01000600,0003.16,0001.70,0000.87,0000.24,0001.04,0000.24,0000.17,0000.16,0000.02,26.3,00.0,0654.4,34.7
2016-04-18T02:07:00Z,0000380,01000600,0002.90,0001.70,0001.29,0000.34,0000.74,0000.34,0000.24,0000.21,0000.20,26.3,00.0,0654.3,34.7
2016-04-18T02:08:00Z,0000380,01000600,0003.92,0001.93,0001.56,-000.02,0000.37,0000.00,0000.32,0000.23,0000.34,26.3,00.0,0654.4,34.7
2016-04-18T02:09:00Z,0000380,01000600,0004.10,0001.32,0001.49,0001.07,-000.08,-000.19,0000.12,0000.29,0000.17,26.3,00.0,0654.4,34.7
2016-04-18T02:10:00Z,0000380,01000600,0003.12,0001.61,0001.63,0000.50,0000.29,-000.11,0000.20,0000.03,0000.01,26.3,00.0,0654.4,34.7
2016-04-18T02:11:00Z,0000380,01000600,0003.61,0001.65,0001.28,0000.18,0000.21,0000.48,0000.26,0000.38,0000.28,26.3,00.0,0654.3,34.7
2016-04-18T02:12:00Z,0000380,01000600,0003.72,0002.50,0000.91,0000.44,0000.35,0000.00,0000.14,0000.18,-000.10,26.3,00.0,0654.4,34.7
2016-04-18T02:13:00Z,0000380,01000600,0003.39,0001.86,0001.61,-000.06,0000.58,0000.60,0000.09,0000.14,0000.43,26.3,00.0,0654.4,34.7
2016-04-18T02:14:00Z,0000380,01000600,0003.41,0002.20,0001.30,0000.00,0000.61,0000.06,0000.24,0000.03,-000.17,26.3,00.0,0654.3,34.7
2016-04-18T02:15:00Z,0000380,01000600,0002.82,0001.80,0001.28,-000.23,0000.18,0000.19,0000.08,0000.26,0000.41,26.3,00.0,0654.3,34.8
2016-04-18T02:16:00Z,0000380,01000600,0002.99,0001.81,0001.64,0000.39,0000.35,0000.66,0000.33,0000.46,0000.11,26.3,00.0,0654.3,34.8
2016-04-18T02:17:00Z,0000380,01000600,0004.07,0002.17,0001.55,0000.50,0001.05,0000.34,0000.01,-000.01,0000.04,26.3,00.0,0654.3,34.8
2016-04-18T02:18:00Z,0000380,01000600,0003.10,0001.63,0001.56,0001.18,0000.51,0000.18,0000.35,0000.29,0000.34,26.3,00.0,0654.4,34.8
2016-04-18T02:19:00Z,0000380,01000600,0001.44,0000.97,0001.08,0000.36,0000.03,0000.39,0000.25,0000.18,0000.20,26.3,00.0,0654.4,34.8
2016-04-18T02:20:00Z,0000380,01000600,0002.42,0001.99,0001.19,0000.42,0000.42,0000.18,0000.26,0000.16,-000.01,26.3,00.0,0654.4,34.8
2016-04-18T02:21:00Z,0000380,01000600,0004.51,0002.62,0001.09,0001.26,0000.56,0000.58,0000.28,0000.30,0000.53,26.3,00.0,0654.4,34.8
2016-04-18T02:22:00Z,0000380,01000600,0002.87,0001.13,0001.93,-000.23,0000.45,0000.32,0000.32,0000.10,-000.11,26.3,00.0,0654.4,34.8
2016-04-18T02:23:00Z,0000380,01000600,0003.08,0001.86,0000.21,0000.77,0000.76,0000.24,0000.17,0000.16,0000.28,26.3,00.0,0654.4,34.8
2016-04-18T02:24:00Z,0000380,01000600,0003.74,0002.48,0001.20,0000.97,0000.29,0000.06,0000.21,0000.27,-000.06,26.3,00.0,0654.4,34.8
2016-04-18T02:25:00Z,0000380,01000600,0002.67,0002.08,0001.11,0000.13,-000.23,0000.02,0000.19,0000.04,-000.00,26.3,00.0,0654.4,34.8
2016-04-18T02:26:00Z,0000380,01000600,0002.61,0002.25,0001.32,-000.11,0000.56,0000.32,0000.15,0000.28,0000.07,26.3,00.0,0654.4,34.8
2016-04-18T02:27:00Z,0000380,01000600,0002.43,0002.03,0001.16,0000.98,0000.26,0000.11,0000.39,0000.32,0000.42,26.3,00.0,0654.3,34.8
2016-04-18T02:28:00Z,0000380,01000600,0004.00,0001.81,0001.68,-000.19,0000.88,0000.44,0000.15,0000.15,0000.14,26.3,00.0,0654.3,34.8
2016-04-18T02:29:00Z,0000380,01000600,0002.54,0002.30,0001.10,0000.52,0000.14,0000.29,0000.30,0000.22,0000.13,26.2,00.0,0654.3,34.8
2016-04-18T02:30:00Z,0000380,01000600,0003.51,0002.43,0001.44,0000.47,0000.31,0000.53,0000.32,0000.26,0000.37,26.2,00.0,0654.3,34.7
2016-04-18T02:31:00Z,0000380,01000600,0004.06,0001.82,0000.90,0000.42,0000.43,-000.11,0000.20,0000.16,0000.20,26.2,00.0,0654.3,34.7
2016-04-18T02:32:00Z,0000380,01000600,0003.09,0001.51,0001.57,0000.37,0000.55,-000.11,0000.15,0000.33,-000.22,26.2,00.0,0654.3,34.7
2016-04-18T02:33:00Z,0000380,01000600,0003.48,0002.09,0000.98,0000.36,0000.43,-000.03,0000.17,-000.07,0000.36,26.2,00.0,0654.3,34.7
2016-04-18T02:34:00Z,0000380,01000600,0003.63,0001.90,0001.10,0000.29,0000.23,-000.15,0000.44,0000.49,0000.40,26.2,00.0,0654.3,34.7
2016-04-18T02:35:00Z,0000380,01000600,0003.38,0001.75,0001.08,0000.71,0000.59,0000.44,0000.17,0000.15,-000.06,26.1,00.0,0654.3,34.7
2016-04-18T02:36:00Z,0000380,01000600,0003.94,0002.58,0001.30,0001.21,0001.04,0000.02,0000.20,0000.05,0000.06,26.1,00.0,0654.3,34.7
2016-04-18T02:37:00Z,0000380,01000600,0003.57,0002.58,0001.06,0000.42,0000.93,0000.11,0000.17,0000.20,0000.28,26.0,00.0,0654.3,34.7
2016-04-18T02:38:00Z,0000380,01000600,0003.92,0002.82,0001.23,0000.15,0000.88,0000.48,0000.28,0000.25,0000.39,26.0,00.0,0654.3,34.7
2016-04-18T02:39:00Z,0000380,01000600,0003.11,0001.68,0000.56,0001.00,0001.00,-000.23,0000.24,0000.13,0000.02,26.0,00.0,0654.2,34.7
2016-04-18T02:40:00Z,0000380,01000600,0002.50,0001.57,0001.44,0000.19,0000.39,0000.34,0000.09,0000.27,0000.13,26.0,00.0,0654.2,34.7
2016-04-18T02:41:00Z,0000380,01000600,0003.26,0002.07,0001.23,0000.11,0000.02,0000.24,0000.32,0000.11,0000.05,26.0,00.0,0654.2,34.7
2016-04-18T02:42:00Z,0000380,01000600,0002.51,0001.93,0001.43,-000.24,0000.69,0000.26,0000.16,0000.20,-000.03,26.0,00.0,0654.2,34.7
2016-04-18T02:43:00Z,0000380,01000600,0004.16,0002.29,0001.17,0000.34,0000.37,0000.23,0000.28,0000.21,0000.53,26.0,00.0,0654.1,34.7
2016-04-18T02:44:00Z,0000380,01000600,0002.84,0002.02,0001.43,0000.32,0000.26,0000.23,0000.21,0000.20,-000.29,26.0,00.0,0654.1,34.7
2016-04-18T02:45:00Z,0000380,01000600,0002.96,0001.68,0001.81,0000.45,0000.64,-000.06,0000.18,0000.25,0000.24,26.0,00.0,0654.1,34.6
2016-04-18T02:46:00Z,0000380,01000600,0003.30,0002.62,0001.07,0000.50,0000.48,0000.40,0000.09,0000.11,0000.12,25.9,00.0,0654.1,34.6
2016-04-18T02:47:00Z,0000380,01000600,0003.69,0002.24,0001.54,0000.34,0000.40,0000.16,0000.27,0000.09,0000.26,25.9,00.0,0654.1,34.6
2016-04-18T02:48:00Z,0000380,01000600,0003.44,0001.56,0001.56,-000.31,0000.22,-000.06,0000.33,0000.50,0000.32,25.9,00.0,0654.1,34.6
2016-04-18T02:49:00Z,0000380,01000600,0002.93,0001.49,0001.55,0000.16,0000.71,0000.15,0000.19,0000.04,-000.12,25.8,00.0,0654.1,34.6
2016-04-18T02:50:00Z,0000380,01000600,0003.34,0002.47,0000.99,0000.13,0000.34,0000.23,0000.27,0000.09,0000.17,25.8,00.0,0654.1,34.6
2016-04-18T02:51:00Z,0000380,01000600,0003.11,0001.66,0001.30,0000.06,0000.50,-000.10,0000.15,0000.29,-000.04,25.8,00.0,0654.1,34.6
2016-04-18T02:52:00Z,0000380,01000600,0003.66,0003.00,0001.66,0000.66,-000.05,0000.53,0000.21,0000.13,0000.59,25.8,00.0,0654.1,34.6
2016-04-18T02:53:00Z,0000380,01000600,0004.33,0002.23,0001.10,0000.02,0000.39,0000.42,0000.22,0000.24,-000.19,25.8,00.0,0654.1,34.6
2016-04-18T02:54:00Z,0000380,01000600,0001.92,0001.73,0001.19,0000.35,0000.22,0000.60,0000.17,0000.22,0000.19,25.8,00.0,0654.1,34.6
2016-04-18T02:55:00Z,0000380,01000600,0002.17,0002.49,0001.16,0000.29,0000.22,-000.02,0000.27,0000.14,0000.28,25.7,00.0,0654.1,34.6
2016-04-18T02:56:00Z,0000380,01000600,0003.82,0002.26,0001.01,-000.16,-000.02,0000.18,0000.38,0000.38,0000.31,25.7,00.0,0654.1,34.6
2016-04-18T02:57:00Z,0000380,41000600,,,,,,,,,,,,0654.2,34.6
2016-04-18T02:58:00Z,0000380,61000600,,,,,,,,,,25.5,00.0,0653.3,34.6
2016-04-18T02:59:00Z,0000380,21000600,,,,,,,,,,25.5,00.0,0653.3,34.6
2016-04-18T03:00:00Z,0000380,21000600,,,,,,,,,,25.5,00.0,0653.3,34.6
2016-04-18T03:01:00Z,0000380,21000600,,,,,,,,,,25.5,00.0,0653.3,34.6
2016-04-18T03:02:00Z,0000380,21000600,,,,,,,,,,25.5,00.0,0653.3,34.6
2016-04-18T03:03:00Z,0000380,61000600,,,,,,,,,,25.6,00.0,0653.3,34.6
2016-04-18T03:04:00Z,0000380,41000600,0004.45,0002.33,0001.50,0000.89,0000.24,-000.02,-000.07,0000.25,-000.20,25.5,00.0,0653.9,34.6
2016-04-18T03:05:00Z,0000380,01000600,0003.93,0003.34,0001.66,0000.39,0000.22,0000.40,0000.50,0000.32,0000.41,25.5,00.0,0654.0,34.6
2016-04-18T03:06:00Z,0000380,01000600,0003.46,0002.25,0001.60,0000.60,0000.02,-000.27,0000.08,-000.03,0000.20,25.5,00.0,0654.0,34.6
2016-04-18T03:07:00Z,0000380,01000600,0002.71,0002.68,0001.75,0000.31,-000.48,0000.32,0000.18,0000.37,-000.06,25.5,00.0,0654.0,34.6
2016-04-18T03:08:00Z,0000380,01000600,0003.11,0002.38,0001.41,0000.31,0000.35,0000.79,0000.18,0000.05,0000.33,25.5,00.0,0653.9,34.6
2016-04-18T03:09:00Z,0000380,01000600,0004.55,0002.48,0001.37,0000.79,0000.22,0000.08,0000.19,0000.17,0000.22,25.5,00.0,0653.9,34.6
2016-04-18T03:10:00Z,0000380,01000600,0004.17,0002.62,0001.47,0000.26,0000.29,0000.10,0000.18,0000.19,-000.09,25.5,00.0,0653.9,34.6
2016-04-18T03:11:00Z,0000380,01000600,0003.69,0002.25,0002.15,0000.15,-000.06,0000.29,0000.18,0000.13,0000.17,25.5,00.0,0653.9,34.6
2016-04-18T03:12:00Z,0000380,01000600,0004.25,0002.56,0001.10,0000.19,0000.69,-000.18,0000.28,0000.24,0000.11,25.5,00.0,0653.9,34.6